Location: Puerto Pe�asco
(31.3170°N, 113.5330°W)
Time: 10:54:01
(UTC-06:00)

OTV 5 (USA 277) - Pass Details

Date: 26 September 2018
Orbit: 387 x 394 km, 54.5° (Epoch: 08 September)

Event Time Altitude Azimuth Distance (km) Brightness Sun altitude
Exits shadow 05:12:23 11° 111° (ESE) 1,374 ? -28.7°
Drops below altitude 10° 05:12:52 10° 103° (ESE) 1,425 ? -28.6°
Sets 05:16:07 0° 66° (ENE) 2,285 ? -28.0°
